默认 日期 大小 文件数 浏览量 最新下载 xml
com 1080p磁力链接相关资源由用户搜索指令自动获取,结果来源于网络,本站不存储任何资料,亦不承担任何责任,请于24小时内删除,搜索到323355个磁力,显示前4000条数据,用时232ms。
    ... www.scenetime.com.txt": 103, "baroness.von.sketch.show.s03e03.1080p.webrip ... , "baroness.von.sketch.show.s03e03.1080p.webrip.x264-cookiemonster.nfo": 444}
创建时间: 2018-10-31 16:56:38 大小:848.78 MB 文件数量:7 热度:20 最近下载:2025-08-01 08:51:07
    ... .png": 2442582}, "Chicago.PD.S05E09.1080p.HEVC.x265-MeGusta.mkv": 698233756 ... .1080p.HEVC.x265-MeGusta.nfo": 1206, "Torrent Downloaded From WWW.TORRENTING.COM ...
创建时间: 2018-10-31 17:03:19 大小:674.3 MB 文件数量:7 热度:9 最近下载:2023-04-02 02:20:02
    {"Leia.txt": 160, "BLUDV.mp4": 33957794, "BLUDV.url": 110, "Possuídos.1998.1080p.BluRay.x264.DUAL-WWW.BLUDV.COM.mkv": 2718393879, "Possuídos.1998.1080p.BluRay.x264.DUAL-WWW.BLUDV.COM.srt": 94848}
创建时间: 2018-10-31 17:04:41 大小:2.56 GB 文件数量:5 热度:10 最近下载:2025-03-10 11:48:02
    ... .png": 2275639}, "Chicago.Med.S03E06.1080p.HEVC.x265-MeGusta.mkv": 581227685 ... .1080p.HEVC.x265-MeGusta.nfo": 1209, "Torrent Downloaded From WWW.TORRENTING.COM ...
创建时间: 2018-10-31 17:05:16 大小:561.57 MB 文件数量:7 热度:10 最近下载:2023-04-02 02:30:03
    ... WWW.TORRENTING.COM.txt": 84, "Me.Myself.and.I.S01E06.1080p.HEVC ... , "Me.Myself.and.I.S01E06.1080p.HEVC.x265-MeGusta.nfo": 1220}
创建时间: 2018-10-31 17:05:38 大小:335.03 MB 文件数量:7 热度:17 最近下载:2025-10-02 01:18:03
    ... , "screen0004.png": 2091515}, "killjoys.s04e03.1080p.web.x264-tbs.mkv": 1360655692 ... .1080p.web.x264-tbs.nfo": 46, "Torrent Downloaded From www.scenetime.com ...
创建时间: 2018-10-31 17:08:10 大小:1.27 GB 文件数量:7 热度:10 最近下载:2023-04-02 02:40:01
    ... - IMPORTANTE.jpg": 61130, "WWW.DTORRENT.COM.BR.txt": 896, "DicasParaTodos ACESSE ... Acontece (2015) Blu-Ray 1080p Dublado - WWW.DTORRENT.COM.BR.mp4": 1756633773}
创建时间: 2018-10-31 17:09:23 大小:1.64 GB 文件数量:7 热度:19 最近下载:2024-12-22 05:51:01
    ... .png": 1744664}, "The.Purge.S01E04.1080p.HEVC.x265-MeGusta.mkv": 518094262 ... .1080p.HEVC.x265-MeGusta.nfo": 1203, "Torrent Downloaded From www.torrenting.com ...
创建时间: 2018-10-31 17:10:03 大小:500.37 MB 文件数量:7 热度:10 最近下载:2023-04-02 02:40:01
    ... www.torrenting.com.txt": 86, "The.Purge.S01E06.INTERNAL.1080p.HEVC.x265 ... ": 417767829, "The.Purge.S01E06.INTERNAL.1080p.HEVC.x265-MeGusta.nfo": 1225}
创建时间: 2018-10-31 17:11:08 大小:402.89 MB 文件数量:7 热度:11 最近下载:2023-04-02 02:50:02
    ... WWW.TORRENTING.COM.txt": 84, "Bering.Sea.Gold.S10E09.1080p.HEVC.x265 ... ": 1176911674, "Bering.Sea.Gold.S10E09.1080p.HEVC.x265-MeGusta.nfo": 1217}
创建时间: 2018-10-31 17:13:02 大小:1.1 GB 文件数量:7 热度:11 最近下载:2023-04-02 02:50:03
    ... www.SceneTime.com.txt": 113, "How.Its.Made.S11E07.1080p.WEB.x264 ... ": 806133804, "how.its.made.s11e07.1080p.web.x264-caffeine.nfo": 425}
创建时间: 2018-10-31 17:13:18 大小:777.49 MB 文件数量:7 热度:10 最近下载:2025-01-21 07:22:02
    {"Leia.txt": 162, "BLUDV.mp4": 33957794, "BLUDV.url": 110, "Levantando.Poeira.2018.1080p.WEB-DL.6CH.x264.DUAL-WWW.BLUDV.COM.mkv": 2553372319, "Levantando.Poeira.2018.1080p.WEB-DL.6CH.x264.DUAL-WWW.BLUDV.COM.srt": 111471}
创建时间: 2018-10-31 17:16:42 大小:2.41 GB 文件数量:5 热度:9 最近下载:2023-04-02 03:00:10
    {"Screens": {"screen0001.png": 1789104, "screen0002.png": 2411912, "screen0003.png": 2162265, "screen0004.png": 3433968}, "tvmaze.nfo": 2311, "Greys.Anatomy.S14E16.1080p.WEB.X264-EDHD.mkv": 2013328360, "Torrent Downloaded From www.scenetime.com.txt": 103}
创建时间: 2018-10-31 17:16:59 大小:1.88 GB 文件数量:7 热度:11 最近下载:2023-04-02 03:00:11
    ... .Torrenting.com.txt": 113, "the.last.o.g.s01e03.internal.1080p.web ... .last.o.g.s01e03.internal.1080p.web.x264-bamboozle.nfo": 72 ...
创建时间: 2018-10-31 17:20:55 大小:716.03 MB 文件数量:7 热度:11 最近下载:2023-04-02 03:20:02
    ... úmia.1999.1080p.BluRay.5.1.x264.DUAL-WWW.BLUDV.COM.mkv ... ": 2345751688, "A.Múmia.1999.1080p.BluRay.5 ... -WWW.BLUDV.COM.srt": 79259, "A.Múmia.1999.1080p.BluRay.5 ... .1.x264.DUAL-WWW.BLUDV.COM.forced ...
创建时间: 2018-10-31 17:21:31 大小:2.19 GB 文件数量:5 热度:14 最近下载:2025-08-12 01:55:01
    ... .txt": 79, "bojack.horseman.s04e06.1080p.web.x264-strife.mkv": 1430530375 ... , "bojack.horseman.s04e06.1080p.web.x264-strife.nfo": 56}
创建时间: 2018-10-31 17:22:54 大小:1.34 GB 文件数量:7 热度:11 最近下载:2024-06-26 11:31:02
    ... From www.SceneTime.com.txt": 113, "Money.Heist.S01E04.1080P.WEB.x264 ... .mkv": 1431888461, "money.heist.s01e04.1080p.web.x264-inspirit.nfo": 410}
创建时间: 2018-10-31 17:27:04 大小:1.34 GB 文件数量:7 热度:12 最近下载:2023-04-02 03:40:02
    ... www.Torrenting.com.txt": 113, "future.man.s01e09.multi.1080p.hdtv.x264 ... ": 2352958672, "future.man.s01e09.multi.1080p.hdtv.x264-hybris.nfo": 11905}
创建时间: 2018-10-31 17:28:03 大小:2.2 GB 文件数量:7 热度:16 最近下载:2025-08-05 16:05:01
    {"Leia.txt": 160, "BLUDV.mp4": 33957794, "BLUDV.url": 110, "Tempestade.Planeta.em.Fúria.2018.1080p.BluRay.x264.DUBLADO-WWW.BLUDV.COM.mp4": 1788640764, "Tempestade.Planeta.em.Fúria.2018.1080p.BluRay.x264.DUBLADO-WWW.BLUDV.COM.forced.srt": 2227}
创建时间: 2018-10-31 17:29:44 大小:1.7 GB 文件数量:5 热度:12 最近下载:2024-11-23 10:15:02
    ... .1080p.BluRay.5.1.x264.DUAL-WWWW.BLUDV.COM.srt": 107704}, "BLUDV.COM ... .2.2010.1080p.BluRay.5.1.x264.DUAL-WWWW.BLUDV.COM.mkv ... ": 2319660548, "Homem.de.Ferro.2.2010.1080p.BluRay ... .5.1.x264.DUAL-WWWW.BLUDV.COM.forced ...
创建时间: 2018-10-31 17:30:45 大小:2.16 GB 文件数量:6 热度:16 最近下载:2025-05-23 17:02:06